Regional Weather Roundup
Issued by NWS

Home | Current Version | Previous Version | Graphics & Text | Print | Product List | Glossary On
Versions: 1 2 3 4 5 6 7 8 9 10 11 12 13 14 15 16 17 18 19 20 21 22 23 24 25 26 27 28 29 30 31 32 33 34 35 36 37 38 39 40 41 42 43 44 45 46 47 48 49 50
000
ASUS43 KLMK 190702
RWRKY
KENTUCKY REGIONAL WEATHER ROUNDUP
NATIONAL WEATHER SERVICE LOUISVILLE KY
200 AM EST SUN FEB 19 2017

NOTE "FAIR" INDICATES FEW OR NO CLOUDS BELOW 12,000 FEET
WITH NO SIGNIFICANT WEATHER AND/OR OBSTRUCTIONS TO VISIBILITY.

KYZ001>023-026-027-061>063-070>075-190800-
WESTERN AND SOUTH CENTRAL KENTUCKY

CITY           SKY/WX    TMP DP  RH WIND       PRES   REMARKS
PADUCAH        FOG       44  43  96 CALM      29.95S VSB 1/4
HENDERSON      CLOUDY    45  41  87 CALM      29.95R VSB 1/4
OWENSBORO      PTCLDY    47  47 100 S5        29.96F FOG
HOPKINSVILLE   CLOUDY    50  50 100 CALM      29.96S FOG
BOWLING GREEN  CLOUDY    47  45  93 CALM      29.98S FOG
GLASGOW        NOT AVBL
$$

KYZ024-025-028>034-038-045-046-053-190800-
NORTH CENTRAL KENTUCKY

CITY           SKY/WX    TMP DP  RH WIND       PRES   REMARKS
LOUISVILLE/SDF CLOUDY    51  47  86 SW8       29.96S
LOUISVILLE/LOU CLOUDY    51  47  86 CALM      29.97S
FORT KNOX      CLOUDY    48  48 100 CALM      29.95S FOG
$$

KYZ035>037-039>044-047>052-055>060-089>105-190800-
NORTHEAST KENTUCKY

CITY           SKY/WX    TMP DP  RH WIND       PRES   REMARKS
LEXINGTON      CLOUDY    47  44  90 SW8       29.96F
COVINGTON      CLOUDY    50  46  86 W7        29.93S
FRANKFORT      CLOUDY    48  45  89 SW6       29.95S FOG
$$

KYZ054-064>069-076>088-106>120-190800-
SOUTHEAST KENTUCKY

CITY           SKY/WX    TMP DP  RH WIND       PRES   REMARKS
JACKSON        CLOUDY    46  44  93 VRB3      29.98R
LONDON         FOG       47  45  93 SW3       29.99R VSB 1/2
SOMERSET       CLOUDY    45  45 100 CALM      30.01S
MIDDLESBORO    CLOUDY    47  47 100 CALM      30.00R FOG
MONTICELLO     CLOUDY    48  46  93 W13       30.01R
$$




USA.gov is the U.S. government's official web portal to all federal, state and local government web resources and services.